Overview Statistics Trail Chart Weather Telemetry Raw packets
 

This is the latest recevied weather packets stored in our database for station/object WC4PEM-9. If no packets are shown the sender has not sent any weather packets the latest 10 day(s).

<< 150 151 152 153 154 155 156 >>
Time Temp. Humidity Pressure Rain* Wind** Luminosity Snow
1787796137 22.78° C 96% 1016.3 hPa 7.37 mm - - -
1787796003 22.78° C 96% 1016.2 hPa 7.87 mm - - -
1787795837 22.78° C 96% 1016.2 hPa 7.87 mm - - -
1787795673 22.78° C 96% 1016.3 hPa 8.13 mm - - -
1787795537 22.78° C 96% 1016.3 hPa 8.13 mm - - -
1787795237 22.78° C 96% 1016.4 hPa 8.64 mm - - -
1787795093 22.78° C 96% 1016.5 hPa 9.14 mm - - -
1787794937 22.78° C 96% 1016.5 hPa 9.14 mm - - -
1787794637 22.78° C 96% 1016.6 hPa 9.65 mm - - -
1787794337 22.78° C 96% 1016.5 hPa 10.16 mm - - -
1787794037 22.78° C 96% 1016.5 hPa 10.67 mm - - -
1787793737 22.78° C 96% 1016.5 hPa 11.18 mm - - -
1787793437 22.78° C 96% 1016.6 hPa 12.19 mm - - -
1787793137 22.78° C 96% 1016.7 hPa 12.95 mm - - -
1787792837 22.78° C 95% 1016.9 hPa 13.72 mm - - -
1787792537 22.78° C 95% 1017.1 hPa 14.73 mm - - -
1787792237 22.78° C 95% 1016.7 hPa 15.49 mm - - -
1787792001 22.78° C 95% 1017 hPa 16.76 mm - - -
1787791937 22.78° C 95% 1017 hPa 16.76 mm - - -
1787791637 22.78° C 96% 1017.2 hPa 17.78 mm - - -
1787791337 22.78° C 95% 1017 hPa 19.3 mm - - -
1787791037 22.78° C 95% 1017 hPa 20.57 mm - - -
1787790807 22.78° C 95% 1017.1 hPa 22.1 mm - - -
1787790737 22.78° C 95% 1017.1 hPa 22.1 mm - - -
1787790499 22.78° C 95% 1017 hPa 23.88 mm - - -

* Rain latest hour (hover to see other rain measurements)
** Current wind speed in m/s (hover to see current wind gust speed)